Regional Weather Roundup
Issued by NWS Wilmington, NC

Home | Current Version | Previous Version | Text Only | Print | Product List | Glossary On
Versions: 1 2 3 4 5 6 7 8 9 10 11 12 13 14 15 16 17 18 19 20 21 22 23 24 25 26 27 28 29 30 31 32 33 34 35 36 37 38 39 40 41 42 43 44 45 46 47 48 49 50
000
ASUS42 KILM 301313
RWRILM
RWRILM
REGIONAL HOURLY WEATHER ROUNDUP
NATIONAL WEATHER SERVICE WILMINGTON NC
900 AM EDT FRI SEP 30 2016

NOTE: "FAIR" INDICATES FEW OR NO CLOUDS BELOW 12,000 FEET WITH NO
SIGNIFICANT WEATHER AND/OR OBSTRUCTIONS TO VISIBILITY.

...............WFO WILMINGTON COUNTY WARNING AREA...............

......COASTAL NC AND SC COUNTIES......

CITY           SKY/WX    TMP DP  RH WIND       PRES   REMARKS
WILMINGTON     PTSUNNY   75  73  93 NE5       30.02R
N MYRTLE BEACH PTSUNNY   79  74  84 SE3       29.98R
MYRTLE BEACH   PTSUNNY   75  66  73 CALM      30.00R

......INLAND NC AND SC COUNTIES.......

CITY           SKY/WX    TMP DP  RH WIND       PRES   REMARKS
LUMBERTON      CLOUDY    73  72  96 CALM      29.99R FOG
ELIZABETHTOWN  CLOUDY    71  71 100 SE3       29.99S
WHITEVILLE     NOT AVBL
FLORENCE       FOG       73  72  96 W7        29.99R VSB 1
DARLINGTON     PTSUNNY   71  71 100 SW5       30.00R FOG
KINGSTREE        N/A     72  70  94 CALM      29.99R
HARTSVILLE     CLOUDY    68  68 100 CALM      29.99R VSB 3/4
BENNETTSVILLE  CLOUDY    73  73 100 CALM      29.98S FOG
CONWAY         PTSUNNY   70  70 100 CALM      29.99R FOG
GEORGETOWN     FAIR      73  72  94 SW5       29.99F
MARION         CLOUDY    70  70 100 CALM      29.99R FOG

....................REST OF NORTH CAROLINA......................

.........EASTERN NC.........

CITY           SKY/WX    TMP DP  RH WIND       PRES   REMARKS
CAPE HATTERAS  LGT RAIN  80  76  87 SE3       30.05R
JACKSONVILLE   LGT RAIN  77  74  90 SE6       30.03R
MOREHEAD CITY  CLOUDY    80  76  87 NE5       30.03R
KENANSVILLE    CLOUDY    72  72 100 E3        30.02R FOG
NEW BERN       MOSUNNY   76  74  93 E7        30.04R
ELIZABETH CITY MOSUNNY   75  73  93 NE7       30.07R

.........CENTRAL NC.........

CITY           SKY/WX    TMP DP  RH WIND       PRES   REMARKS
RALEIGH DURHAM CLOUDY    75  71  87 E10       30.01S
ROCKY MOUNT    FOG       72  72 100 NE5       30.03S VSB 1/2
ROANOKE RAPIDS NOT AVBL
FAYETTEVILLE   CLOUDY    73  71  93 S3        29.99R
HOFFMAN        PTSUNNY   72  72 100 S5        29.99R FOG

.........WESTERN NC.........

CITY           SKY/WX    TMP DP  RH WIND       PRES   REMARKS
CHARLOTTE      PTSUNNY   68  65  90 SE7       29.99S FOG
GREENSBORO     CLOUDY    71  70  96 SE8       29.99R
HICKORY        NOT AVBL
BOONE          NOT AVBL
ASHEVILLE      NOT AVBL

.....................REST OF SOUTH CAROLINA.....................

.........EASTERN SC.........

CITY           SKY/WX    TMP DP  RH WIND       PRES   REMARKS
CHARLESTON     MOSUNNY   75  70  84 NW5       29.99R
BEAUFORT MCAS  MOSUNNY   73  59  61 N6        30.00R
HILTON HEAD    NOT AVBL

.........CENTRAL SC.........

CITY           SKY/WX    TMP DP  RH WIND       PRES   REMARKS
COLUMBIA       MOSUNNY   66  54  65 SW5       29.99R
ORANGEBURG     SUNNY     67  54  63 NW6       30.00R
SUMTER SHAW    SUNNY     70  57  64 CALM      29.97R

.........WESTERN SC.........

CITY           SKY/WX    TMP DP  RH WIND       PRES   REMARKS
GREENVILLE     NOT AVBL
ROCK HILL      SUNNY     64  59  83 SW3       30.00R
ANDERSON       SUNNY     58  53  84 CALM      30.00R
CLEMSON        NOT AVBL
GREENWOOD      SUNNY     60  50  69 SW5       30.02R


...................COASTAL AND OFFSHORE REPORTS..................

................LOCAL PIERS AND NC RESERVE................


STATION/POSITION TIME  SKY/WX   TEMP    WIND        PRES    VSBY
                                AIR SEA DIR/SP/G
                 (UTC)          (F)     (DEG/KT/KT) (MB)    (MI)
JOHNY MRCER PIER 1248            75 82   40/  9/ 11 1015.5R
NC RESRV MASNBRO 1145            79     170/  4     1014.0
OCEAN CREST PIER NOT AVBL
SPRINGMAID  PIER 1248            80 81  170/ 10/ 11 1014.8R


................COASTAL AND OFFSHORE BUOYS................


STATION/POSITION TIME  SKY/WX   TEMP    WIND        PRES    VSBY
                                AIR SEA DIR/SP/G
                 (UTC)          (F)     (DEG/KT/KT) (MB)    (MI)
DIMNDSHOAL 41025 1250            80 77  160/ 10/ 12 1017.3R
WVE H/P(F/S)=  4/ 9 SWL H/P/D(F/S/D)=  3/ 30/ 9

CAPE LOOKOUT     1300            80     120/  6/  6 1016.6R
ONSLOW BAY 41036 NOT AVBL
ONSLOW BAY 41064 1208            82 82  180/ 12/ 16 1016.0R
ONSLOW BAY 41159 1255               82                N/A
WVE H/P(F/S)=  4/ 6 SWL H/P/D(F/S/D)=  2/100/11

5SE WRITBC 41038 1208            81 80  170/ 10/ 16 1016.7R
MASNBO INL 41110 NOT AVBL
WILM HARBR 41108 NOT AVBL
27SE WRITB 41037 1208            82 81  170/ 12/ 14 1015.9R
FRYING PAN 41013 1250            81 82  160/ 14/ 17 1015.6R
WVE H/P(F/S)=  4/ 5 SWL H/P/D(F/S/D)=  2/100/10

SUNST NRSH 41024 1208            78 81  140/ 17/ 23 1014.5R
CAPRS NRSH 41029 1208            80 81  120/  8/ 12 1014.9R
EDISTO     41004 1250            80 82  180/ 10/ 12 1014.8R
WVE H/P(F/S)=  4/ 5 SWL H/P/D(F/S/D)=  3/180/ 5



..........OFFSHORE BUOYS BEYOND 100 NM OFFSHORE...........
.....IN A TRIANGLE---HAT TO BERMUDA TO BAHAMAS TO HAT.....


STATION/POSITION TIME  SKY/WX   TEMP    WIND        PRES    VSBY
                                AIR SEA DIR/SP/G
                 (UTC)          (F)     (DEG/KT/KT) (MB)    (MI)
150E HAT   41001 NOT AVBL
W BERMUDA  41048 1250            82 83  140/ 12/ 12 1021.3R
WVE H/P(F/S)=  4/ 8 SWL H/P/D(F/S/D)=  3/ 60/ 8

ATLANTIC S 41049 1250            82 83   70/ 10/ 12 1020.4R
WVE H/P(F/S)=  6/ 9 SWL H/P/D(F/S/D)=  5/130/ 9

E BAHAMAS  41046 1250            85 86   70/ 14/ 19 1017.0R
WVE H/P(F/S)=  7/ 9 SWL H/P/D(F/S/D)=  7/120/ 9

NE BAHAMAS 41047 1250            84 85  150/  4/  6 1019.5R
WVE H/P(F/S)=  5/ 7 SWL H/P/D(F/S/D)=  5/150/ 7

120E CANVRL41010 NOT AVBL

END



USA.gov is the U.S. government's official web portal to all federal, state and local government web resources and services.